Theta_e
309 309 309 309 309 309 309 309 309 309 309 309 309 309 309 310 310 310 310 310 310 310 310 311 311 311 311 311 311 311 311 312 313 314 314 314 314 314 314 313 313 313 313 313 313 314 313 313 313 312 313 313 314 316 316 315 315 316 317 316 314 316 317 318 319 317 317 317 316 315 315 316 317 316 315 315 315 315 316 314 313 313 313 313 313 312 313 313
309 309 309 309 309 309 309 309 309 309 309 309 309 309 309 310 310 310 310 310 310 310 310 310 311 311 311 311 311 311 312 313 314 314 314 314 314 314 314 314 314 315 314 314 314 314 314 313 313 313 313 314 315 315 316 316 316 316 317 316 315 316 316 316 318 317 316 317 316 315 314 315 316 316 315 315 316 315 316 315 313 313 312 312 312 311 312 312
310 310 310 309 309 309 309 309 309 309 309 309 309 309 309 310 310 310 310 310 310 310 310 310 311 311 311 311 311 312 313 313 314 314 314 314 314 314 314 314 315 315 315 315 315 314 314 314 313 313 313 315 315 315 316 317 317 317 317 317 316 316 315 314 316 316 315 315 316 315 314 315 316 315 315 316 316 316 316 315 314 314 312 311 311 311 311 312
311 311 311 310 310 310 310 310 310 309 309 309 310 309 309 310 310 310 310 310 310 310 310 311 311 311 311 311 311 312 313 314 314 314 314 314 314 315 315 315 315 315 315 316 315 315 314 314 313 313 314 315 314 314 316 316 317 317 317 317 316 314 315 315 314 315 314 314 315 315 314 315 315 314 314 315 316 316 315 313 313 312 311 311 311 311 312 313
312 312 312 311 311 310 310 310 309 309 309 309 310 309 309 310 310 310 310 310 310 310 310 310 310 311 311 311 312 313 314 315 315 313 314 314 314 314 315 315 315 315 315 315 315 314 314 314 313 313 314 315 315 315 316 315 316 317 316 317 316 314 316 316 314 315 314 314 314 314 314 315 314 313 314 314 315 315 312 311 311 310 310 311 311 312 312 312
311 311 311 312 311 311 310 310 310 309 309 309 309 309 309 310 310 310 310 310 310 310 310 310 310 311 311 311 313 313 314 315 314 313 314 314 314 314 314 314 314 314 315 316 315 314 314 313 313 314 314 315 315 315 316 315 315 317 316 314 315 315 316 316 314 314 314 313 314 314 314 313 313 313 313 313 313 312 310 310 311 310 310 310 311 312 312 312
310 310 311 311 311 311 311 311 310 309 309 309 309 309 309 309 310 310 310 310 310 310 310 310 311 311 312 312 313 315 316 316 314 314 314 313 313 313 314 314 314 314 315 315 315 314 314 314 314 314 314 315 314 314 314 314 315 316 316 315 314 314 315 315 314 313 312 313 313 313 312 312 313 313 312 310 310 309 310 310 310 309 310 310 311 311 312 312
309 309 309 310 310 311 311 311 311 310 310 309 309 309 309 309 310 310 310 310 310 310 310 310 311 311 312 313 315 316 317 317 316 316 315 315 315 315 315 315 315 314 314 316 315 314 313 314 314 314 315 314 313 314 313 313 316 316 315 315 314 313 313 313 313 313 312 312 312 311 312 313 312 312 311 308 308 308 309 309 309 309 310 310 311 311 311 312
308 308 308 309 309 310 310 311 311 311 310 310 309 309 309 309 310 309 309 310 309 310 310 310 311 312 313 315 316 317 317 317 317 318 318 318 318 317 318 317 316 315 315 316 316 314 313 314 313 313 315 313 313 314 313 314 316 315 314 314 314 313 313 313 313 313 313 312 312 311 312 312 310 310 310 307 307 308 308 309 309 309 310 310 310 310 311 311
308 308 308 308 309 309 309 310 311 311 311 310 310 309 309 309 309 309 309 309 310 310 310 311 312 314 315 316 317 318 317 318 319 319 319 319 320 320 320 319 317 316 316 317 316 315 313 314 314 313 314 314 314 314 313 314 315 313 313 313 313 314 313 312 313 312 312 311 311 312 313 311 309 311 311 307 307 308 308 308 308 309 309 309 310 309 310 310
308 308 308 308 308 308 308 309 310 311 311 310 310 310 309 309 309 309 309 309 309 310 311 312 314 315 317 318 318 318 318 318 319 319 319 320 320 320 320 319 319 318 318 317 317 315 313 313 313 314 314 314 314 313 313 313 313 312 312 314 314 314 313 312 312 310 311 311 310 311 312 310 309 311 310 306 307 308 307 308 308 308 308 308 309 309 309 309
308 308 308 308 308 308 308 308 309 309 310 310 310 310 309 309 309 309 309 309 310 311 313 315 316 317 318 318 318 319 318 318 318 318 318 318 318 319 319 320 319 319 319 318 317 315 314 313 313 314 315 315 315 314 313 312 312 312 312 315 316 316 315 313 311 310 310 312 310 311 313 312 311 310 307 305 307 307 306 307 307 307 308 308 309 309 309 309
308 308 308 308 308 308 307 307 308 308 309 309 309 309 309 309 309 309 309 310 311 313 315 316 318 318 318 318 318 318 318 318 318 318 318 317 317 318 318 319 318 318 318 317 316 315 314 313 313 314 314 315 315 314 313 312 312 313 312 313 316 318 316 313 311 311 311 312 310 312 315 316 312 308 307 306 306 307 307 307 307 307 308 308 309 308 308 309
308 308 307 308 307 307 307 307 307 307 308 308 308 308 308 308 308 309 310 312 314 315 317 317 318 318 318 318 318 318 318 318 318 318 318 317 317 317 317 317 317 317 317 316 315 315 314 314 314 314 314 314 314 313 313 312 312 314 313 313 315 317 317 313 311 312 313 312 309 312 317 317 312 308 307 307 307 307 308 307 307 308 308 308 308 308 308 308
308 308 307 307 307 307 306 307 306 306 307 307 307 307 308 308 309 311 313 315 316 316 317 317 318 318 317 318 318 318 318 317 318 318 317 317 317 316 316 316 316 316 316 316 316 316 316 315 315 315 314 313 314 314 315 314 313 313 315 316 316 316 317 315 311 311 313 311 310 313 316 316 312 309 308 308 307 307 307 307 307 307 307 307 307 307 307 307
308 308 308 307 307 307 307 306 306 306 306 306 307 308 309 310 312 314 315 316 316 316 316 317 317 317 317 317 317 317 318 317 317 317 317 316 316 316 316 316 316 315 316 316 316 317 316 315 315 314 313 313 314 316 317 317 316 314 315 318 318 316 317 316 312 310 311 311 311 313 315 316 312 309 308 307 306 306 307 307 306 307 306 306 306 306 306 306
308 308 308 308 307 307 306 306 306 306 306 307 308 310 312 313 315 315 316 315 315 316 316 317 317 317 317 317 316 317 317 317 317 317 316 316 316 316 316 315 315 315 315 316 316 316 316 315 314 313 313 313 315 316 318 318 318 317 315 316 317 316 315 316 314 311 310 311 313 313 314 315 312 309 308 307 306 307 307 306 305 305 306 306 305 305 305 306
308 308 308 308 307 307 306 306 306 307 307 309 310 313 315 315 315 315 315 315 315 316 316 316 316 317 318 317 316 316 317 317 317 316 316 316 315 315 315 315 315 316 315 315 315 315 315 314 314 315 314 313 314 317 318 318 319 319 317 317 316 315 314 315 315 313 311 313 314 314 315 315 311 309 308 306 305 306 306 305 304 304 304 304 304 304 304 305
308 308 308 307 307 307 307 307 307 308 309 311 313 314 315 315 314 315 315 315 316 317 318 317 317 318 318 317 316 316 317 317 316 316 316 316 316 315 315 315 315 315 315 316 316 314 315 315 314 316 316 315 315 317 318 318 318 318 318 317 317 316 315 314 314 312 310 313 315 315 316 316 313 310 308 306 304 305 305 303 303 303 303 303 303 304 304 305
308 309 308 307 307 307 307 308 308 309 311 313 314 315 315 316 316 316 316 316 317 318 318 318 318 318 318 317 316 316 316 316 316 316 316 316 316 315 315 315 315 315 315 316 316 313 314 316 317 318 318 316 316 316 316 315 314 315 316 316 316 317 317 315 313 311 310 313 315 315 315 316 315 312 309 306 304 305 305 304 304 302 302 302 302 303 304 305
309 309 308 307 308 308 309 309 310 311 313 314 314 315 315 316 317 318 317 317 318 318 318 317 317 317 317 317 317 317 316 316 316 316 316 316 315 315 315 314 315 315 314 313 314 312 313 317 318 318 317 315 315 314 313 313 313 314 315 316 316 316 317 314 312 310 309 312 315 314 313 315 315 312 308 306 306 306 306 305 304 303 302 301 301 302 304 305
309 308 308 308 309 309 310 311 312 313 313 314 314 314 315 316 316 317 318 318 318 318 317 317 317 316 316 316 316 316 316 316 316 316 316 316 316 316 315 314 315 315 312 311 314 313 314 317 317 315 314 312 312 311 312 313 313 314 314 315 316 316 316 314 311 309 309 312 314 313 312 315 315 310 306 306 307 306 304 304 303 302 302 301 301 302 303 305
309 308 309 309 309 310 312 313 314 314 314 314 314 314 315 316 316 317 317 318 318 318 317 317 317 317 317 317 316 316 316 316 316 316 316 316 316 314 314 314 314 313 311 312 315 316 316 316 315 313 312 311 310 309 311 312 312 314 314 315 316 316 316 317 313 309 309 310 312 312 312 315 315 311 306 304 304 303 301 301 301 301 301 301 301 302 303 305
309 309 310 310 312 315 316 315 314 314 314 314 314 314 315 316 316 316 317 318 319 318 317 317 317 318 318 317 317 316 316 317 316 316 316 316 315 314 314 314 313 312 312 313 315 317 317 313 310 311 312 313 312 310 310 312 313 314 314 315 317 316 315 317 314 310 310 310 309 311 315 317 316 315 310 304 301 302 300 300 300 300 300 301 302 303 304 305
310 310 311 311 314 318 319 317 315 314 314 315 315 314 314 316 316 316 317 319 320 319 317 317 317 318 318 317 317 317 316 316 316 317 316 316 315 314 313 313 313 314 314 312 312 316 316 311 309 311 311 313 314 312 312 314 315 315 315 314 315 315 315 314 313 312 314 315 312 312 319 321 316 315 313 306 302 303 301 300 301 300 300 300 301 302 303 304
312 312 312 312 315 319 319 317 316 314 314 315 315 315 315 316 317 316 316 319 321 319 317 318 319 319 318 318 317 317 317 317 316 316 316 316 315 314 313 312 312 314 313 311 312 315 314 309 310 312 312 313 314 313 314 314 316 317 316 314 313 313 314 314 314 314 317 318 312 310 318 321 317 316 313 307 304 304 302 302 302 301 300 300 300 300 302 302
313 313 313 315 318 319 318 317 317 315 314 315 314 315 316 316 317 316 316 320 322 320 318 318 318 319 318 317 317 317 319 318 315 315 315 315 314 314 314 313 312 311 310 311 315 315 312 310 312 313 313 313 314 315 314 313 316 318 315 313 313 312 314 314 314 315 316 316 312 310 314 317 317 317 311 306 307 306 303 302 302 302 301 300 300 300 301 301
316 315 316 319 320 319 318 317 317 316 315 316 315 315 317 317 316 316 318 323 323 319 319 317 315 316 317 316 316 317 317 316 316 315 314 314 313 313 314 313 313 312 310 313 318 316 313 313 314 314 314 314 315 317 314 312 316 317 311 310 311 312 314 314 314 315 313 314 316 314 313 315 318 316 309 306 309 310 308 304 303 302 301 300 300 300 301 301
319 319 318 319 320 319 318 317 316 316 315 316 316 316 317 317 316 317 319 323 322 318 317 316 314 315 315 315 315 314 313 313 315 314 312 313 313 313 314 313 313 312 310 312 318 317 312 311 312 314 315 315 315 313 311 314 316 312 308 309 310 311 312 312 314 314 312 314 318 317 314 316 320 317 313 310 311 313 312 307 304 304 302 301 300 300 300 300
320 321 319 319 320 319 318 316 315 315 315 316 317 317 318 317 317 321 322 324 324 318 314 314 314 314 315 315 314 312 311 312 312 312 312 312 312 312 312 312 312 313 312 311 314 313 309 307 309 312 314 313 311 307 306 311 312 309 310 311 311 310 310 311 312 312 314 316 318 317 315 316 318 318 317 315 313 313 312 307 305 304 302 301 300 300 300 300
320 321 320 320 320 319 318 317 315 315 315 318 319 318 318 319 320 325 325 323 321 318 313 313 313 313 315 317 317 313 310 310 310 312 312 311 311 311 312 313 312 313 314 313 314 312 309 309 310 310 309 308 309 307 305 305 306 309 313 313 314 314 311 312 312 312 317 320 315 311 311 314 317 318 317 316 312 310 311 308 306 304 302 301 300 300 300 300
318 320 320 320 319 318 318 318 316 315 316 318 319 317 319 322 323 326 323 319 320 319 316 314 312 313 315 318 318 313 311 312 311 312 312 311 312 312 314 316 316 317 318 317 316 314 312 313 311 310 308 308 312 312 308 306 306 310 313 314 318 318 315 316 316 314 318 318 310 307 309 313 315 316 316 315 311 308 309 308 306 304 303 302 300 300 300 300
316 318 319 319 318 317 317 318 316 315 317 319 318 318 321 323 323 324 322 321 321 318 315 314 312 313 315 317 316 312 312 313 311 311 311 312 313 313 315 315 315 319 320 318 317 316 316 315 311 311 310 309 313 314 313 311 309 311 314 316 320 320 318 320 318 315 317 314 307 306 310 313 315 315 314 312 309 305 304 304 305 304 303 302 301 301 301 300
316 318 321 319 318 318 319 318 315 314 318 319 317 318 321 322 323 323 322 321 319 313 312 313 313 313 315 316 314 312 314 314 311 311 312 312 314 315 315 313 313 316 316 317 318 317 321 320 314 313 313 311 312 315 316 314 311 311 314 316 318 319 320 321 319 318 317 313 307 307 311 315 316 313 308 305 303 301 301 301 301 303 302 302 301 301 301 300
317 318 321 321 320 320 320 319 315 315 318 317 316 319 321 322 322 323 322 320 317 313 311 312 314 315 317 315 311 311 315 315 311 311 312 313 314 315 316 314 312 313 315 319 319 316 320 321 315 311 310 310 312 313 313 314 313 311 311 313 316 317 317 315 313 313 312 312 310 309 312 314 314 309 302 301 301 300 301 300 300 302 302 301 301 301 300 300
320 319 319 320 321 321 321 318 315 316 317 316 317 320 321 321 321 322 321 319 317 315 313 313 315 317 318 316 312 311 313 313 312 313 313 313 314 315 315 315 313 312 316 320 318 316 319 318 312 308 308 308 309 310 311 313 315 311 310 313 314 313 314 313 311 308 308 315 316 312 313 312 312 311 304 301 303 302 301 301 301 301 301 300 301 300 300 300
322 321 319 319 320 320 321 318 315 316 317 315 318 321 320 321 321 321 320 318 316 315 316 317 318 317 318 318 315 312 312 313 312 314 315 313 314 315 313 315 314 312 315 318 318 317 319 317 311 309 311 307 304 308 309 309 311 311 313 314 312 311 313 314 316 313 311 318 317 313 314 314 314 315 308 304 305 304 302 301 301 300 300 300 300 300 301 300
322 321 320 319 319 320 320 317 315 316 316 316 319 320 320 320 320 319 318 316 315 316 318 319 319 318 319 319 317 313 313 315 313 314 316 314 316 316 313 314 315 312 313 315 316 316 317 318 313 308 310 308 304 308 311 308 307 310 311 312 313 315 315 314 316 317 317 318 316 313 313 313 315 316 312 309 309 307 304 302 301 301 300 300 301 301 300 300
321 320 320 320 319 319 320 317 315 316 317 317 319 320 320 320 319 319 317 315 315 317 319 320 320 319 318 319 318 314 313 315 314 314 316 316 316 316 314 316 316 313 313 313 314 314 314 318 317 308 307 308 306 310 313 311 307 307 309 310 311 313 315 314 314 316 317 318 316 315 313 313 314 315 314 313 312 309 307 303 301 302 301 301 301 301 301 301
321 319 319 320 319 320 319 316 315 316 317 318 320 320 319 319 319 319 318 317 317 317 319 321 320 320 318 318 318 315 314 315 314 315 317 316 316 315 313 315 316 314 313 313 314 314 312 316 317 310 306 309 310 311 314 314 310 309 311 312 311 311 312 313 313 312 314 317 316 317 317 315 313 313 314 314 313 311 308 304 304 304 303 302 301 301 302 302
320 318 319 319 319 320 318 316 316 316 318 319 320 320 320 319 319 318 318 318 318 318 319 321 321 321 319 317 317 316 314 314 314 315 316 315 316 317 314 314 315 313 312 312 313 314 313 314 316 312 308 311 312 311 311 312 312 312 312 313 313 313 312 315 316 312 311 314 315 315 318 317 311 309 311 312 312 310 308 307 306 305 304 303 302 302 303 302
318 319 319 319 320 319 317 316 316 316 318 319 319 319 319 319 319 319 318 317 318 319 318 320 323 323 320 318 317 317 316 315 314 314 316 315 316 317 314 312 313 312 312 313 313 313 313 314 316 313 311 312 310 307 305 307 310 311 311 312 314 314 314 317 319 314 310 311 312 311 315 316 309 304 306 307 307 306 306 307 307 306 305 304 303 302 302 302
317 318 318 318 319 319 317 316 316 316 317 318 318 317 318 319 319 319 319 318 318 319 318 319 321 320 320 320 318 317 317 317 315 314 316 316 315 315 313 310 311 312 313 315 314 312 312 314 316 314 312 311 309 307 306 306 308 310 311 311 313 314 315 316 316 314 313 313 312 312 316 316 309 303 304 304 302 302 303 304 305 305 304 303 302 302 301 301
317 317 316 317 319 318 317 317 316 316 316 317 317 317 317 318 319 319 319 319 319 319 320 320 319 320 322 322 318 317 317 320 318 315 317 318 315 312 310 309 310 312 314 315 314 313 314 315 316 315 315 314 313 312 310 309 309 310 312 311 311 313 314 314 313 312 314 316 315 315 318 316 310 305 304 302 301 302 302 302 303 304 303 303 302 302 301 301
316 315 315 316 317 317 317 317 315 314 315 316 317 318 317 318 318 318 319 319 319 319 320 321 319 319 322 321 318 318 318 320 322 318 316 318 315 310 308 309 310 312 313 313 313 314 315 317 316 317 318 319 318 317 316 314 311 310 313 312 311 312 313 313 313 313 315 317 316 317 318 315 310 307 306 305 304 305 304 303 302 303 303 303 302 302 302 301
316 315 314 314 315 315 315 315 315 314 314 315 316 316 317 317 317 317 318 319 318 317 319 320 319 319 321 320 319 319 317 318 321 319 316 318 317 311 307 308 310 310 311 311 311 312 315 317 317 317 319 320 319 318 317 316 313 312 313 312 311 312 312 313 314 315 315 315 315 316 317 315 311 309 309 308 307 308 307 304 302 303 303 302 302 302 302 302
315 315 314 314 315 314 313 313 314 315 314 314 314 315 315 317 316 316 317 318 318 318 318 318 319 320 321 320 320 320 318 317 318 318 316 316 315 310 307 307 308 309 310 310 311 312 314 316 316 317 318 318 318 317 316 316 315 314 314 313 312 311 312 313 314 315 315 314 316 316 315 316 313 310 311 310 309 310 308 305 304 305 305 303 302 301 301 301
314 314 313 314 315 314 314 314 314 315 315 314 314 314 315 316 316 316 317 317 317 318 319 318 318 320 321 320 321 321 320 318 317 318 317 315 314 311 309 309 308 308 310 310 310 312 315 315 316 317 316 316 316 315 314 315 316 315 314 314 312 311 311 313 314 314 315 315 317 316 314 316 314 311 312 312 310 310 309 307 307 307 305 303 301 300 301 302
312 312 311 312 313 313 313 313 313 315 315 314 313 314 314 314 315 316 316 317 317 317 318 319 319 319 320 320 321 321 320 320 319 317 316 315 314 313 312 312 309 307 309 310 309 311 315 315 316 316 315 315 315 314 313 313 315 315 314 314 313 312 311 312 313 313 314 315 316 315 314 314 314 312 313 311 309 309 308 307 306 305 303 302 301 301 302 303
310 311 310 311 311 309 310 312 313 314 315 314 314 313 312 313 314 315 315 316 317 317 317 319 319 318 319 319 320 321 320 320 321 319 316 315 314 313 313 314 311 307 309 311 310 310 313 315 316 315 315 315 315 314 313 313 314 315 315 314 313 312 311 311 312 313 313 313 314 313 312 313 312 312 311 308 307 307 306 305 304 303 302 302 302 303 304 305
310 310 310 311 310 309 309 310 312 314 314 313 313 312 312 313 313 314 314 313 315 316 317 318 319 318 318 318 319 320 318 317 318 316 315 315 314 313 314 314 311 309 309 311 311 311 312 313 313 313 316 317 314 312 313 312 312 314 315 314 311 310 310 310 310 311 312 313 313 312 313 313 311 309 307 304 304 305 305 304 303 303 304 304 304 305 306 306
308 309 309 310 310 308 308 309 310 311 312 312 312 312 312 313 313 315 315 311 311 312 314 316 318 318 318 318 317 316 314 312 311 311 311 312 312 311 311 311 310 311 311 310 311 311 311 312 312 313 318 316 309 308 311 311 313 316 316 315 312 310 311 310 310 311 311 311 312 313 313 313 310 308 306 304 304 306 306 305 305 305 305 305 306 306 306 307
Wind_Speed
6 6 5 5 5 5 5 5 5 5 5 5 5 5 4 4 4 4 3 3 2 2 2 2 3 4 5 6 6 6 7 8 10 11 10 9 7 4 3 5 4 3 3 2 2 2 2 2 2 3 2 3 4 4 4 5 4 1 1 1 2 2 2 4 6 4 2 5 5 2 1 2 2 2 4 4 1 3 5 2 2 3 2 4 8 11 11 10
6 5 5 5 5 5 5 4 4 4 5 5 5 5 4 4 4 4 3 3 3 2 3 3 4 4 6 6 6 7 7 9 11 11 9 6 2 4 7 7 5 4 3 2 2 1 1 1 1 2 2 3 4 3 3 4 4 1 0 0 1 2 1 2 4 3 1 4 5 2 2 1 4 4 4 3 0 3 2 5 6 4 3 7 7 6 6 5
5 5 5 5 5 5 5 5 5 5 5 5 5 5 4 4 4 4 4 4 3 3 4 4 5 5 6 6 7 7 8 11 9 5 1 2 6 10 10 7 6 5 4 4 3 2 1 1 1 2 3 4 3 3 3 3 2 1 1 0 2 2 1 2 3 2 2 2 2 3 3 2 4 3 3 5 4 1 2 3 2 1 5 7 3 2 3 3
6 6 6 6 5 5 5 5 5 5 5 5 5 5 5 5 5 5 5 5 4 4 5 5 6 6 6 7 7 7 10 9 3 3 7 9 11 11 8 6 5 5 5 6 5 2 2 1 0 2 3 3 2 2 2 4 2 1 1 2 4 3 2 3 4 3 2 2 1 2 2 3 2 2 3 5 6 2 5 2 3 5 7 6 1 1 2 2
7 7 7 7 7 7 6 6 6 6 6 6 6 6 6 6 6 6 6 6 6 5 6 6 6 7 7 7 7 8 9 5 3 8 9 9 8 6 4 3 2 4 5 6 6 3 2 2 1 2 2 2 1 1 2 3 2 2 1 3 4 4 2 4 5 4 3 2 2 3 3 3 3 3 4 5 5 0 2 2 6 7 6 3 2 1 1 1
8 8 8 8 8 8 8 8 8 8 8 7 7 7 7 7 7 7 7 7 7 7 7 7 7 7 7 7 8 9 7 3 3 6 7 5 4 2 1 1 3 4 5 7 6 4 2 2 1 2 2 2 1 2 2 2 1 0 2 2 2 4 2 2 5 3 2 3 4 4 3 3 4 4 5 5 4 3 2 4 5 5 4 2 2 1 2 2
9 9 9 9 9 9 10 10 10 9 9 9 8 8 8 8 9 8 8 8 8 8 7 7 7 7 8 8 9 8 7 6 4 5 7 6 6 6 7 7 7 6 6 7 5 4 2 3 2 3 2 2 1 1 2 2 0 2 1 3 3 4 3 2 4 5 5 6 5 5 5 5 5 4 4 4 4 5 3 2 3 4 3 3 2 2 3 3
11 10 10 10 10 10 11 11 11 11 10 10 10 9 9 9 10 9 9 9 9 8 8 8 8 8 9 9 9 8 8 8 7 9 10 11 11 11 11 11 10 9 7 6 4 4 2 4 4 4 2 2 2 3 2 1 2 1 0 2 2 4 4 5 7 9 9 9 8 7 5 5 5 3 3 3 4 4 3 4 4 3 3 3 2 2 2 3
13 12 12 11 11 11 12 12 12 12 12 11 11 11 11 10 10 10 10 10 9 9 9 9 9 9 9 10 9 8 7 6 5 7 10 11 12 12 12 11 11 9 8 6 4 4 3 4 5 4 1 3 4 3 1 2 1 1 1 0 2 4 5 8 9 9 9 7 6 6 5 3 6 6 3 2 6 6 6 6 5 4 4 4 3 2 1 2
16 15 14 13 13 13 13 13 13 12 13 13 12 12 11 11 11 11 11 11 10 10 10 9 9 9 10 9 8 6 5 5 4 5 6 7 8 9 10 10 10 9 8 7 5 4 3 3 4 4 2 4 4 3 2 1 2 1 2 4 5 6 7 7 7 7 8 7 6 6 3 2 6 6 2 4 8 7 7 6 6 6 5 4 2 0 1 2
17 17 16 15 14 14 14 14 14 13 13 14 13 13 12 12 12 12 12 12 11 11 10 10 10 10 10 9 7 6 7 6 5 6 5 5 6 6 7 8 8 8 8 7 6 5 4 4 4 4 2 4 5 3 2 1 1 1 5 7 6 6 6 4 4 4 4 4 4 5 3 4 5 4 2 4 9 8 7 7 6 5 4 1 1 3 3 3
19 18 17 16 16 15 15 15 15 14 14 14 14 14 13 13 13 13 13 12 12 11 11 11 10 10 9 10 12 12 11 11 9 9 8 7 6 6 6 6 6 6 6 6 6 6 5 5 5 3 2 4 4 2 2 2 0 2 3 6 6 6 3 1 2 1 1 1 5 6 4 4 5 3 3 3 9 9 6 6 5 3 2 1 2 3 3 4
20 19 19 17 17 16 16 16 16 15 15 15 15 14 14 14 14 14 13 13 12 12 11 11 10 10 9 10 13 13 12 13 13 13 12 11 10 9 9 8 7 7 6 6 6 7 7 6 6 4 5 5 3 2 3 3 1 2 0 3 6 6 2 2 3 2 1 1 6 5 3 3 6 4 3 4 10 9 5 4 4 3 2 3 3 2 2 3
20 20 19 18 18 17 16 16 16 16 16 16 15 15 15 14 14 14 14 13 12 12 11 11 10 10 9 10 13 13 13 13 13 13 14 14 14 13 13 11 10 9 7 7 7 7 7 7 6 5 6 5 4 5 3 2 0 2 1 1 2 3 1 4 2 3 1 2 5 5 4 1 7 6 2 5 11 10 4 4 5 4 4 4 3 2 2 2
21 21 19 18 18 17 16 17 16 16 16 16 16 15 15 14 14 13 13 12 12 11 11 10 10 9 8 10 13 12 13 14 15 15 14 14 13 13 12 11 10 9 9 9 8 8 7 7 6 4 5 6 7 5 2 0 1 1 3 3 1 2 1 3 3 3 1 1 3 5 4 1 6 6 2 4 11 11 6 6 6 6 5 4 3 3 1 1
22 22 20 18 18 18 17 17 16 16 16 15 15 15 14 14 13 13 12 12 11 11 10 10 11 9 6 9 12 12 12 13 13 14 15 15 13 11 10 9 9 9 10 9 9 7 8 8 6 6 6 6 6 3 2 2 2 1 3 4 2 2 3 1 2 3 2 0 2 4 3 1 4 6 2 3 9 10 7 7 7 7 6 5 4 3 2 2
23 22 21 19 19 18 17 17 17 16 16 15 15 14 14 13 13 12 12 11 11 11 10 9 9 8 8 10 11 12 14 13 12 12 12 12 12 10 10 10 10 10 10 9 8 8 8 8 6 5 4 2 3 3 3 4 5 2 2 4 3 3 3 2 2 2 2 2 2 2 4 3 4 5 2 3 8 8 6 7 7 7 7 6 5 4 4 5
23 22 21 20 19 18 17 17 17 16 16 15 15 14 13 13 12 12 12 12 11 8 8 10 8 4 7 13 12 11 11 11 12 12 10 10 10 10 11 10 10 11 9 7 8 8 7 6 4 2 2 3 4 5 6 5 3 3 4 4 3 4 5 4 2 1 1 3 4 3 6 6 5 6 2 4 8 7 6 7 7 7 7 6 6 6 6 7
24 23 21 20 19 19 18 18 17 17 16 16 14 13 12 11 11 12 13 12 10 6 5 9 11 5 3 7 11 10 9 8 9 11 11 11 12 13 12 9 10 11 9 6 6 7 6 4 3 4 5 7 8 10 9 2 2 1 3 3 4 4 5 3 1 1 2 4 7 7 10 9 6 8 5 5 6 6 6 7 7 7 7 7 7 8 9 9
24 23 21 20 19 18 18 18 18 17 17 16 14 12 10 8 6 8 12 16 17 16 13 11 12 12 6 5 8 8 8 7 8 10 11 13 13 13 12 10 10 10 7 4 4 6 6 4 6 8 7 9 12 11 5 3 4 2 2 2 5 6 6 1 2 1 1 4 8 7 10 12 9 7 8 6 5 6 7 7 7 7 8 8 8 9 10 11
24 23 21 20 19 18 18 18 18 18 17 16 15 12 8 8 5 3 7 13 17 20 20 19 17 16 14 12 10 9 9 8 9 11 12 13 14 11 11 12 9 7 4 4 5 4 5 6 10 8 3 5 8 7 3 3 3 2 3 4 5 7 7 2 2 1 1 3 6 3 6 13 11 4 8 6 6 6 7 7 6 7 7 8 9 10 10 11
24 23 21 20 19 18 17 17 17 18 18 17 17 15 11 11 10 7 6 8 13 17 18 20 21 21 21 19 15 13 11 9 9 14 14 15 17 12 11 12 8 5 5 6 5 3 5 9 9 4 6 5 3 4 6 5 4 3 3 4 5 4 4 3 2 2 2 4 4 1 5 12 9 4 7 7 7 6 7 7 6 6 6 6 8 9 11 12
24 23 21 19 17 16 16 16 16 17 19 18 19 18 14 11 11 10 8 6 11 17 19 21 23 25 25 23 21 18 14 11 11 16 18 18 19 15 13 12 7 5 6 9 8 5 5 7 5 7 9 7 4 5 7 5 4 5 4 5 6 2 2 4 1 3 2 2 2 3 5 10 8 4 7 7 7 5 6 7 7 7 6 6 9 11 12 14
24 22 20 17 13 13 15 15 15 18 19 20 20 19 15 12 10 8 7 6 8 12 18 22 22 25 27 23 21 20 19 17 14 16 21 23 21 15 12 11 6 5 8 12 11 10 5 1 2 9 10 8 6 6 8 6 5 7 7 8 8 5 6 6 1 2 3 3 2 3 6 9 8 7 5 6 6 5 5 5 7 8 9 10 11 13 15 16
23 22 19 16 13 13 15 16 17 19 20 21 20 17 15 11 7 5 4 5 6 6 11 17 17 21 26 23 19 18 18 18 17 17 21 27 24 14 8 9 7 7 10 9 7 10 5 4 7 9 7 8 7 6 9 8 5 5 9 12 12 9 8 5 2 0 4 4 3 2 7 5 2 5 5 4 5 5 4 5 7 7 10 12 12 14 17 18
22 21 18 15 14 15 15 15 19 20 20 21 18 15 14 10 5 2 1 3 6 4 5 10 12 12 16 19 20 17 10 11 18 20 21 27 27 16 7 7 5 4 6 7 3 5 2 5 6 6 6 8 7 6 8 8 6 5 4 9 12 10 6 5 5 4 4 3 1 1 6 5 1 3 3 4 4 6 5 6 9 9 11 13 13 15 18 19
21 19 17 15 16 19 19 16 18 19 18 16 15 16 13 11 8 3 1 4 7 6 8 8 9 10 11 16 24 18 3 6 14 18 23 27 25 16 9 7 4 2 5 5 3 2 4 6 4 5 6 6 7 6 7 9 7 3 1 3 8 8 8 8 7 6 3 2 0 3 4 5 6 3 3 4 4 6 8 9 10 12 13 13 14 18 21 22
20 17 17 19 22 25 23 20 18 18 15 10 12 18 15 14 12 6 2 6 3 6 7 6 8 11 13 19 26 14 3 8 8 12 24 26 22 13 8 8 7 6 7 6 6 2 4 7 8 8 7 6 6 2 7 13 7 1 2 1 4 4 5 6 6 5 2 1 4 5 4 4 7 4 3 3 4 8 11 12 13 15 15 15 17 20 22 24
21 18 18 20 23 24 22 22 21 17 13 10 15 19 18 17 12 5 1 5 2 6 4 7 10 9 14 18 17 7 5 5 1 8 20 20 19 10 3 7 7 6 5 4 5 0 2 3 5 8 7 6 3 4 3 10 5 3 5 5 6 4 4 3 4 3 2 3 8 8 9 6 6 5 5 3 4 9 8 10 13 16 17 17 19 23 24 26
25 23 21 21 25 26 22 23 23 17 13 14 18 21 21 17 8 4 4 4 2 4 4 8 8 8 15 14 6 3 3 1 4 13 13 10 13 7 4 7 6 5 3 3 3 0 2 1 1 4 4 3 6 6 4 1 4 9 7 6 7 5 4 2 1 2 2 6 7 8 12 9 6 4 8 5 3 4 4 7 11 15 18 19 20 25 27 28
27 27 25 24 29 31 25 25 25 17 14 16 19 24 20 9 2 5 7 2 1 3 5 5 4 8 15 11 5 5 3 2 8 13 8 6 8 6 7 7 4 3 2 3 4 1 1 2 1 3 4 6 7 5 5 4 3 5 4 5 5 2 3 2 2 3 5 5 2 1 5 9 8 4 5 4 2 2 3 7 12 17 19 21 23 28 30 30
27 28 28 28 30 31 28 27 24 16 16 18 24 26 16 4 2 8 6 2 1 4 5 4 4 8 11 5 2 5 4 3 8 8 5 5 7 8 8 7 6 5 4 7 5 1 3 4 2 2 6 8 6 5 4 2 2 3 3 7 6 3 3 4 3 4 6 4 2 2 2 5 8 7 7 4 3 3 2 2 9 19 22 22 26 31 33 33
29 29 29 30 32 33 31 29 23 20 22 23 28 22 8 3 9 12 9 4 1 2 3 5 4 6 8 5 2 4 2 1 6 4 2 4 5 8 6 4 5 2 2 6 6 3 3 2 4 4 4 9 11 7 5 4 5 7 7 8 7 5 4 5 4 3 4 1 2 1 3 3 5 6 9 5 2 3 3 2 5 16 23 25 30 35 34 34
31 32 32 32 31 31 32 30 25 26 27 27 24 13 6 8 11 10 12 9 2 3 3 4 7 7 7 4 2 5 2 1 7 5 3 5 5 8 8 6 7 2 2 4 4 6 6 3 7 8 5 12 14 7 4 6 8 7 4 4 5 5 4 4 4 3 2 2 2 1 3 4 3 1 1 2 3 4 2 2 5 12 20 26 33 36 35 35
31 32 36 36 33 34 36 33 27 29 31 28 17 7 9 12 10 8 10 8 3 2 3 4 8 7 6 2 1 5 3 2 7 6 4 7 6 7 8 9 10 6 4 5 3 5 6 5 4 3 4 13 13 4 4 7 6 4 1 1 4 4 2 0 1 0 2 1 2 4 3 3 2 2 3 2 1 3 2 2 5 11 19 27 33 36 36 37
33 33 36 38 40 41 40 35 30 33 35 26 10 7 13 12 6 5 7 7 6 6 8 4 4 5 6 3 3 7 3 1 7 6 5 5 5 6 5 6 12 11 7 7 3 3 4 2 2 3 2 6 5 3 4 3 4 4 3 5 3 2 1 1 0 2 1 5 3 5 5 3 1 2 3 3 2 4 4 4 6 10 17 24 31 36 38 39
40 39 40 43 45 44 42 37 33 39 38 22 7 9 12 9 6 6 5 7 9 11 10 4 5 7 7 5 6 9 5 3 7 6 5 4 4 7 7 5 11 15 14 9 3 3 4 1 1 2 2 1 1 3 3 2 2 5 5 6 3 1 1 1 3 1 2 6 3 4 8 6 5 3 2 3 4 6 6 7 8 10 15 21 29 37 40 40
47 45 45 47 46 45 45 37 36 43 35 15 10 15 11 9 9 7 6 7 9 12 9 8 7 7 8 7 6 11 10 6 8 7 6 5 4 9 13 7 10 18 21 13 2 1 4 3 1 1 1 2 2 3 3 0 1 1 2 3 3 3 4 3 3 3 4 6 4 4 6 6 7 6 4 6 9 10 10 9 9 12 17 21 27 37 41 41
47 41 41 49 49 48 46 39 44 46 25 7 11 16 12 10 9 10 13 11 8 11 11 10 8 5 7 8 6 10 12 8 10 8 6 6 4 9 15 10 9 17 23 16 4 1 3 4 2 1 1 2 3 5 8 7 2 2 1 3 1 2 3 3 3 2 3 5 3 2 3 5 7 8 10 12 11 12 13 10 10 15 21 25 30 39 44 44
48 29 26 45 53 50 48 45 45 34 14 8 14 13 10 9 9 14 21 17 7 8 10 9 10 7 6 6 4 7 9 8 10 8 6 8 6 5 12 12 6 9 16 13 4 1 2 3 3 2 1 3 5 7 8 9 8 6 7 7 5 2 0 2 2 1 2 4 3 4 5 3 4 4 9 12 9 10 14 12 11 16 23 30 36 43 48 49
47 18 16 38 48 52 53 43 29 17 8 10 14 13 9 6 8 13 20 20 14 9 7 7 10 9 6 7 5 5 6 6 9 7 5 9 8 4 10 15 9 9 10 6 5 5 4 3 3 4 4 6 4 1 2 3 5 6 8 10 11 8 4 4 5 3 1 3 2 3 5 2 3 1 3 4 2 5 10 12 12 19 29 35 38 43 48 50
32 10 14 31 40 54 53 28 13 13 9 13 19 16 6 4 6 11 15 18 14 7 5 5 7 8 7 7 6 6 7 6 8 8 5 8 11 6 9 17 17 18 14 4 5 6 3 2 3 2 4 4 2 2 2 4 3 3 4 6 7 7 8 7 7 4 3 2 0 0 4 3 2 1 0 1 2 1 6 10 9 16 27 32 34 38 43 47
18 7 11 22 37 55 45 13 10 14 9 17 23 18 10 6 6 9 12 15 11 5 6 5 5 8 7 5 5 8 10 7 8 12 8 6 9 6 9 17 20 18 11 2 3 6 4 2 4 2 0 0 0 0 0 2 1 4 6 4 5 7 7 5 3 3 5 5 4 2 5 3 2 1 1 1 1 0 6 11 10 11 19 25 28 33 38 42
16 9 11 24 44 55 34 8 10 13 11 16 16 15 16 13 9 9 10 12 10 6 9 8 6 7 5 3 5 9 12 10 9 13 9 4 5 5 9 21 22 14 8 3 6 12 8 4 5 5 2 3 3 3 4 4 5 6 4 4 7 8 5 2 2 2 5 7 10 6 7 3 3 2 2 1 1 2 4 10 13 13 16 21 25 30 35 39
11 8 11 29 50 51 30 18 18 13 13 16 13 15 18 12 13 19 14 11 11 7 7 8 7 7 4 4 5 8 12 10 6 8 7 3 3 2 7 20 23 15 7 4 10 15 8 2 7 9 8 9 7 6 6 5 4 3 2 6 10 12 11 6 3 5 6 6 11 10 7 2 2 1 2 2 1 2 4 8 13 16 18 21 24 28 34 38
7 5 5 16 34 33 19 20 24 15 12 16 12 14 17 12 12 18 16 14 14 12 8 3 5 7 5 7 8 7 11 9 2 3 6 5 3 0 4 15 18 15 10 11 17 16 3 2 9 12 12 9 4 2 3 7 7 9 9 11 13 15 15 9 5 7 5 5 8 12 8 4 4 5 5 5 4 4 5 6 10 17 21 23 23 25 31 36
7 4 4 6 14 16 9 8 14 14 15 18 10 8 18 19 9 9 15 16 16 17 10 1 5 9 8 11 11 8 9 8 3 4 6 4 2 2 3 8 9 12 12 12 18 13 2 6 13 13 15 8 2 2 2 9 14 16 15 14 14 14 15 14 13 9 7 5 9 9 9 9 9 10 9 8 7 5 4 6 13 19 22 23 22 22 26 32
9 4 10 11 6 6 10 9 11 13 15 17 10 6 14 19 13 10 13 13 14 17 11 4 9 16 14 14 11 7 8 8 8 8 6 4 4 2 3 2 3 9 10 8 11 8 2 8 10 10 15 10 1 1 4 7 11 12 15 18 16 16 17 18 18 11 10 10 11 6 13 14 11 12 10 8 9 11 11 14 19 20 21 21 21 21 24 28
11 4 8 13 6 2 9 11 9 11 14 13 10 10 13 18 20 15 9 6 8 13 14 12 14 17 17 15 12 9 10 10 10 11 7 6 6 5 4 2 3 7 7 5 6 5 3 6 6 6 11 12 6 3 2 4 5 5 12 17 17 18 19 18 18 14 12 17 12 6 10 13 7 10 8 9 14 16 15 16 18 18 18 19 21 22 23 26
11 7 6 9 6 1 4 6 7 9 12 11 10 11 13 17 20 16 9 7 8 10 14 18 19 16 14 13 13 12 13 13 12 10 10 9 6 6 6 4 4 6 6 5 4 4 5 6 4 5 7 10 7 5 2 3 3 2 8 12 11 13 14 14 15 13 12 16 10 4 7 9 4 8 7 10 14 13 12 14 16 17 18 18 19 21 23 25
13 12 10 8 4 3 3 3 5 7 8 9 10 10 12 17 19 14 7 6 9 9 11 18 20 14 11 13 17 16 12 10 7 6 11 12 9 8 7 5 8 8 7 6 5 5 6 4 4 5 8 7 5 6 5 2 2 5 13 13 10 10 10 11 11 9 10 12 9 6 9 7 5 7 7 8 12 11 11 14 17 17 16 16 18 20 22 24
12 11 12 10 4 3 4 2 4 6 5 6 9 8 9 13 15 12 6 3 5 6 9 15 16 9 8 14 16 11 8 11 10 10 10 9 8 8 6 9 14 12 9 8 4 4 7 5 4 6 8 4 1 5 7 4 1 7 14 12 14 14 12 10 8 9 11 12 10 9 10 5 5 7 7 6 8 10 12 16 18 18 17 17 18 18 19 21
Wind_Direction
180 181 183 184 183 182 186 186 183 178 176 178 179 182 186 187 188 195 199 202 216 242 267 290 306 312 319 324 329 334 337 333 327 321 316 310 303 278 187 154 136 115 100 89 82 60 41 22 19 21 35 72 67 70 73 46 40 75 195 198 144 162 168 167 167 161 101 112 141 142 338 294 313 332 337 318 198 307 317 73 124 143 123 316 314 308 306 308
194 194 194 195 194 195 198 201 201 199 200 199 198 202 208 210 211 217 220 229 244 260 277 291 298 306 315 320 329 334 335 332 324 316 312 306 288 154 142 134 119 96 75 53 34 17 356 344 13 37 64 88 73 70 72 35 27 53 191 276 133 132 98 142 143 147 143 103 126 161 160 231 303 315 328 307 158 332 323 128 138 126 31 330 321 314 320 328
221 219 217 216 212 211 211 214 218 218 219 217 218 220 224 228 230 235 240 248 255 266 279 288 295 305 312 320 329 333 338 334 324 316 319 131 129 129 129 123 103 73 51 33 9 334 280 278 28 72 93 97 82 87 78 28 19 72 239 306 116 122 94 168 168 164 198 95 116 166 172 236 285 286 300 312 305 269 116 104 144 129 337 328 335 346 11 21
254 252 250 247 240 236 231 232 234 236 239 236 236 238 238 242 245 250 254 258 262 269 280 288 296 305 312 321 326 333 339 330 312 128 126 126 125 127 125 117 93 54 35 24 6 332 267 254 118 106 109 97 72 94 72 17 19 117 297 49 103 152 161 161 188 184 201 231 193 183 218 226 208 239 268 301 297 189 118 51 296 296 310 316 321 11 42 37
268 268 268 266 263 258 252 248 247 248 251 251 251 251 251 252 252 256 260 264 270 275 283 290 296 305 311 319 322 332 336 326 134 129 135 133 131 135 128 116 67 24 19 12 2 335 264 241 139 122 111 97 55 85 80 28 45 131 74 59 106 167 171 126 164 170 175 208 198 207 238 211 193 243 240 253 285 297 115 266 279 287 293 299 267 252 337 326
271 272 272 272 271 269 265 260 257 254 254 256 258 257 258 259 260 261 264 270 276 280 285 291 297 302 307 314 317 322 324 308 142 145 155 157 164 185 237 279 313 329 345 353 354 334 263 223 170 133 97 93 32 37 100 76 28 255 111 116 162 194 236 141 170 188 189 199 205 223 239 213 220 251 228 224 259 271 273 263 267 266 257 253 232 254 297 303
272 273 274 273 272 271 269 267 264 261 258 258 259 259 261 263 265 266 270 276 278 283 287 291 297 301 305 310 313 312 299 282 252 212 210 225 235 256 274 281 290 295 315 335 338 319 260 220 182 148 128 108 118 103 115 115 316 300 119 142 195 215 244 232 220 252 252 240 238 240 242 225 231 244 200 185 220 238 252 239 234 230 227 235 230 271 290 306
272 273 274 274 273 271 269 269 269 267 264 263 262 263 263 264 267 270 275 277 279 284 287 291 294 298 304 307 309 304 288 280 261 239 236 242 248 259 266 271 276 281 297 314 320 304 248 220 194 165 142 87 134 140 125 178 166 273 44 126 188 225 252 271 270 275 270 265 256 240 236 233 226 206 147 152 200 198 192 195 190 186 199 226 245 272 295 323
273 273 274 274 273 270 268 268 268 268 267 266 265 264 265 267 270 273 276 278 281 282 284 287 290 294 299 300 301 296 288 285 259 240 239 244 249 254 258 261 264 269 281 291 295 283 240 219 204 185 156 112 134 133 126 250 183 71 354 59 248 252 277 288 281 279 273 263 252 233 229 224 192 179 129 156 192 175 173 183 176 180 198 216 229 241 291 355
272 272 274 276 274 270 267 265 265 266 266 266 266 265 266 268 270 273 276 278 278 278 279 281 284 289 290 291 292 285 280 275 255 247 245 244 247 250 251 253 258 264 274 279 274 258 226 214 196 177 152 127 135 122 136 259 355 44 321 299 275 281 292 286 275 272 267 254 244 232 215 138 172 189 132 155 181 169 171 185 188 198 207 216 223 29 28 31
270 271 273 276 275 271 265 263 262 261 263 264 263 265 266 268 270 271 273 274 274 273 274 276 280 282 283 281 261 255 272 266 258 261 256 248 245 248 249 249 255 261 266 267 252 232 217 204 178 169 155 137 141 126 150 194 16 359 321 299 271 283 290 282 281 269 258 245 215 203 177 123 172 198 80 157 183 169 175 196 198 201 207 233 353 14 15 18
267 270 272 275 275 271 265 260 259 257 259 260 260 262 262 264 266 268 269 268 269 269 272 275 278 276 277 273 256 256 268 264 260 261 256 254 251 248 247 246 249 256 260 253 236 227 220 196 181 186 154 143 152 141 149 148 278 314 334 309 287 282 268 43 6 290 236 194 150 162 186 170 170 149 81 172 190 178 186 206 199 201 220 303 325 340 355 5
264 267 270 273 272 268 263 258 256 254 254 255 256 257 258 260 262 264 265 264 266 269 272 274 274 276 273 268 264 264 264 260 259 258 254 253 252 251 249 247 247 252 251 238 229 219 208 189 182 180 152 146 156 150 128 109 282 273 59 318 305 288 244 72 9 304 252 174 152 169 242 187 145 117 110 167 179 177 188 214 220 232 247 266 277 311 343 354
260 263 266 269 269 265 259 256 254 251 251 251 251 252 253 255 257 260 261 264 268 270 273 274 274 274 265 261 268 267 259 257 254 252 253 251 250 252 252 251 249 249 242 225 211 200 191 179 175 171 155 145 138 140 129 94 345 300 264 238 294 288 201 97 26 318 252 153 159 202 266 202 139 132 169 193 184 186 201 227 234 237 239 248 251 269 304 330
256 259 263 265 264 260 255 254 252 249 247 247 247 248 250 251 254 257 260 264 267 270 272 272 272 269 262 264 267 263 256 252 250 248 248 248 247 248 247 245 238 227 216 203 195 190 177 167 169 149 131 136 141 149 173 209 102 358 271 232 175 251 256 101 64 1 329 106 152 212 261 273 149 149 195 214 195 197 208 217 224 226 226 231 233 244 257 287
253 256 259 260 258 255 252 250 248 246 244 243 244 244 246 249 252 255 259 263 265 267 267 267 266 260 258 264 260 256 252 246 247 247 244 244 241 239 234 223 213 203 198 195 192 188 175 166 156 135 134 142 155 181 224 241 222 165 251 260 220 224 272 6 99 54 1 77 162 219 258 300 143 152 190 209 190 190 193 201 210 213 213 216 221 229 219 191
248 252 255 254 252 251 248 246 244 242 240 239 239 241 244 247 252 255 257 259 260 261 262 261 261 258 254 256 256 252 249 245 244 242 240 239 231 223 216 200 191 191 187 185 182 177 172 160 150 145 143 152 171 186 218 246 242 190 203 258 255 230 256 273 143 92 7 251 213 214 246 254 137 140 192 207 185 178 176 187 197 200 204 210 212 208 197 182
244 246 248 248 249 249 244 242 240 238 236 234 234 237 241 246 250 252 252 253 253 258 262 245 233 261 251 238 240 244 246 244 239 237 231 223 211 199 200 195 187 181 168 167 170 168 164 149 157 181 155 175 180 183 213 242 250 198 194 234 253 229 236 249 243 73 31 261 252 238 248 245 170 157 183 191 185 181 174 180 186 191 196 201 201 195 186 181
240 240 242 243 246 245 242 239 236 233 231 228 230 233 237 245 249 252 251 244 229 222 247 220 202 216 245 221 227 236 242 236 228 228 219 207 197 189 192 193 184 172 159 169 175 164 164 141 161 218 203 193 193 200 217 240 48 150 181 236 261 251 249 238 221 24 23 273 259 253 261 258 209 183 178 168 173 176 175 179 185 187 192 195 193 188 182 182
235 235 236 239 240 241 240 236 233 230 226 225 224 224 228 231 242 255 242 235 234 235 242 233 215 220 232 239 230 223 223 222 220 218 211 205 195 186 187 181 171 173 175 180 166 162 179 190 208 223 211 195 199 204 211 68 82 119 154 234 253 258 267 210 130 59 39 271 259 252 266 270 253 192 161 157 166 179 185 189 194 189 189 192 187 185 182 182
230 230 232 236 236 237 237 234 232 227 223 221 216 213 213 208 213 245 235 241 249 246 245 246 239 232 237 246 239 228 216 211 215 211 208 202 190 183 183 174 167 183 183 121 111 144 180 217 228 225 177 179 199 194 165 125 146 187 223 242 249 249 261 239 128 95 107 252 260 252 263 267 262 177 137 162 183 196 201 199 202 193 189 190 185 186 184 180
226 226 228 232 233 234 234 232 230 226 221 216 213 213 215 220 228 244 260 270 262 252 244 241 239 238 239 239 236 233 215 200 210 207 202 192 187 188 177 176 192 186 144 127 130 152 200 231 232 167 102 114 143 168 189 207 209 211 222 246 255 246 263 259 149 116 185 230 257 294 273 268 262 148 135 178 192 201 211 213 212 197 192 191 185 185 182 177
225 225 226 228 231 234 236 235 230 226 221 216 216 217 218 227 234 245 264 283 272 257 244 238 237 236 235 234 234 225 208 206 211 204 200 190 187 192 179 180 199 159 150 182 191 188 203 241 229 134 133 142 131 168 187 198 218 218 212 233 243 213 229 252 158 116 188 230 295 330 291 273 260 175 148 172 184 191 204 213 214 203 201 198 193 189 180 175
226 225 226 223 220 229 241 245 234 227 225 221 222 220 218 225 232 255 271 273 275 256 245 242 237 236 233 232 232 220 213 221 217 205 203 192 182 186 189 185 174 159 189 200 205 215 211 335 131 146 160 171 155 162 181 197 220 216 214 229 241 221 223 242 79 97 209 205 236 286 285 275 253 226 195 155 168 186 185 197 207 206 207 203 199 193 182 173
228 226 228 217 204 222 241 246 236 230 227 225 225 217 213 220 226 259 279 274 266 238 243 240 230 234 231 227 224 212 214 225 221 212 204 196 186 175 178 183 181 200 200 187 206 234 231 101 131 149 165 179 172 178 191 203 223 224 217 223 237 241 233 227 134 213 257 233 187 233 267 263 201 235 225 150 169 188 176 194 204 203 204 202 198 192 183 173
230 228 227 211 200 215 225 234 237 233 228 227 221 204 204 205 191 213 228 293 263 191 192 214 210 220 216 210 200 190 208 228 219 214 201 198 194 180 167 169 188 224 173 152 208 253 219 130 137 151 165 172 189 211 193 189 224 247 218 214 228 237 234 210 183 200 255 268 92 229 256 256 253 247 195 151 194 194 186 207 207 204 202 200 197 190 182 172
233 231 222 203 199 210 211 219 233 227 223 229 211 190 190 180 162 144 109 282 258 165 146 175 181 185 189 187 179 173 197 189 191 202 194 193 193 190 196 173 163 198 138 139 221 232 145 153 155 158 162 171 201 220 181 179 216 241 82 188 203 207 210 204 197 208 249 323 125 200 233 267 271 261 127 144 215 215 206 209 207 207 204 198 195 188 179 171
231 226 214 203 204 217 222 224 229 220 215 216 190 183 176 164 158 135 157 267 252 124 132 157 157 170 170 169 171 166 120 144 158 192 187 188 188 190 218 198 171 164 155 180 217 213 139 174 187 175 175 197 207 212 162 178 212 286 73 118 158 176 191 186 195 216 245 304 243 202 168 252 257 224 137 148 231 245 220 202 199 203 200 194 192 187 179 172
225 217 209 209 213 225 234 231 226 220 210 181 171 177 166 158 154 120 204 252 173 104 111 147 144 152 149 156 174 168 120 140 106 170 175 182 186 185 220 193 163 139 156 223 237 324 62 194 199 181 192 206 170 37 152 187 203 134 125 98 92 84 92 136 202 201 161 234 246 209 174 225 264 207 184 177 233 246 221 190 192 193 192 191 188 185 179 173
222 215 207 213 217 218 228 231 225 218 197 174 172 171 162 158 153 146 210 237 177 99 99 145 147 148 146 148 180 187 134 97 102 140 153 171 183 176 122 144 137 132 150 291 267 76 51 49 203 197 208 146 106 58 28 47 134 139 139 108 97 88 90 106 178 161 210 236 241 214 186 211 261 211 201 206 214 225 171 166 182 182 186 188 185 185 181 174
218 217 210 212 215 211 214 223 225 215 189 174 168 165 161 157 136 190 206 251 7 126 121 142 142 151 160 159 174 171 147 84 135 148 150 156 171 156 133 142 136 144 186 249 226 157 102 171 173 188 164 117 106 85 46 41 130 154 155 140 130 120 142 170 150 173 242 235 198 186 181 213 239 218 206 204 139 152 159 172 180 178 182 184 185 186 182 176
216 216 216 217 219 220 221 226 227 203 177 169 166 166 161 140 225 220 210 78 106 187 152 147 170 175 176 166 129 149 138 142 163 167 160 158 176 177 181 187 165 166 221 217 199 141 197 200 153 144 165 162 147 109 83 69 199 210 169 164 184 189 178 216 196 194 242 230 100 69 154 219 240 241 253 251 153 160 168 165 180 178 178 180 184 186 182 178
218 215 219 220 223 226 227 235 227 189 175 175 172 173 163 176 215 219 211 181 169 178 113 117 143 162 167 155 132 148 113 131 168 172 156 162 190 195 213 233 185 202 244 187 185 182 204 205 156 167 188 191 185 165 165 176 187 196 181 179 196 186 194 223 202 226 260 218 76 95 176 225 251 248 259 266 85 92 93 93 184 179 177 179 184 185 183 181
217 217 223 225 228 228 227 233 219 186 182 181 177 178 180 207 219 208 203 204 181 58 73 112 118 130 164 168 163 165 144 169 168 161 158 169 192 205 213 225 214 241 62 155 193 190 216 253 178 177 166 177 192 201 163 142 165 193 190 196 210 198 213 225 206 234 264 118 107 134 190 208 201 164 293 334 46 63 95 137 175 175 176 180 183 184 184 184
218 218 223 226 229 227 226 229 210 187 185 181 178 189 191 211 223 204 197 190 157 92 84 109 122 140 186 192 162 187 204 219 167 159 178 180 197 203 197 202 199 189 156 181 200 181 224 267 165 143 127 164 183 195 104 121 159 189 73 222 237 232 218 252 296 343 52 39 182 185 228 234 198 121 95 72 78 117 116 131 160 169 176 180 183 186 187 187
221 218 221 225 226 221 222 223 202 189 189 181 180 209 203 218 219 179 181 166 155 140 122 123 143 162 192 180 188 203 220 177 159 173 202 197 229 213 189 197 191 190 191 184 172 170 210 273 95 77 91 167 180 146 129 158 165 148 175 199 215 312 51 136 220 65 57 269 228 177 225 248 221 219 132 118 152 156 151 158 164 167 173 180 186 189 191 191
217 217 219 223 223 219 219 215 195 191 193 185 197 217 213 228 199 165 171 152 146 143 142 183 191 177 188 184 191 190 178 151 167 187 190 176 234 200 185 220 193 195 211 207 210 207 199 232 125 141 165 169 67 106 98 2 121 140 188 188 140 1 321 216 243 162 182 254 253 182 217 212 190 212 131 138 180 187 188 176 167 172 177 185 192 194 194 193
216 214 215 220 222 218 216 209 192 192 193 186 214 222 226 231 202 183 166 137 142 156 176 217 194 177 190 186 181 178 177 174 169 183 185 181 226 181 171 202 197 198 210 210 233 238 204 226 154 122 177 122 123 157 136 94 259 190 190 163 128 221 206 176 227 234 201 241 259 196 215 219 204 196 165 183 197 195 190 177 173 184 187 191 195 197 197 196
219 209 212 218 217 215 215 205 190 191 193 191 212 217 225 222 203 188 174 158 152 171 195 214 197 196 199 180 156 165 182 184 162 174 196 189 208 177 174 190 196 200 200 191 186 156 186 232 210 103 15 113 147 206 192 178 189 352 154 171 215 267 217 173 194 227 215 237 258 218 207 211 209 192 176 190 199 187 179 178 188 194 193 195 197 198 199 198
215 205 218 217 211 211 209 198 190 191 194 205 209 212 217 208 199 195 188 183 182 190 206 214 201 208 199 176 155 161 188 197 170 183 206 184 185 187 186 189 181 191 190 182 199 175 142 231 219 113 62 178 183 208 206 183 170 174 181 183 188 188 291 258 227 182 227 241 243 254 257 207 181 187 184 190 194 179 176 179 189 196 199 200 200 200 200 199
206 203 225 211 207 205 195 187 189 196 199 207 215 222 214 189 196 200 194 198 212 218 219 220 212 211 186 174 182 154 173 196 186 198 214 191 203 215 192 193 171 140 153 169 219 207 173 201 191 148 179 204 208 280 301 228 192 189 190 186 186 177 156 209 223 183 199 247 224 251 274 233 145 162 203 188 168 166 176 178 183 197 203 204 204 204 203 201
201 207 212 202 205 197 184 177 193 198 202 210 215 222 201 137 188 196 189 198 214 226 222 225 223 217 193 183 189 163 166 187 190 203 222 207 213 216 188 190 172 151 148 160 204 182 139 141 167 165 199 215 289 4 341 298 300 291 249 206 192 185 174 198 221 179 161 223 140 6 279 272 119 110 93 74 23 53 186 191 192 201 206 208 208 207 206 205
209 232 204 198 204 192 180 177 200 192 216 219 215 223 215 191 193 185 186 197 202 199 207 218 215 215 212 184 173 176 184 195 193 197 211 217 215 211 177 175 165 156 155 150 159 147 121 173 182 172 231 188 355 235 231 321 300 249 246 213 202 212 195 203 223 154 180 196 153 184 251 236 127 136 103 71 354 275 206 206 208 211 212 213 213 211 209 208
219 223 188 190 196 190 181 182 191 193 220 214 213 227 224 224 215 192 192 198 196 192 207 217 210 208 213 157 170 189 190 198 207 201 203 210 200 186 168 170 167 166 180 189 168 166 166 185 176 169 195 196 195 209 214 210 201 223 229 180 202 212 177 143 100 139 230 200 163 201 245 200 135 155 137 128 205 225 218 214 215 218 221 221 219 216 212 209
207 207 190 188 189 188 186 191 188 193 210 205 212 219 217 230 224 214 212 200 197 196 201 216 203 186 184 164 186 201 196 202 213 199 202 204 178 160 171 178 177 177 179 146 149 163 171 187 179 186 202 201 202 213 208 186 174 211 194 169 201 201 178 171 168 196 228 178 164 207 236 153 111 193 196 172 173 234 223 218 222 223 225 227 223 218 213 211
180 187 210 194 194 199 206 200 191 190 196 201 213 216 213 223 222 215 214 207 206 202 197 204 173 173 183 184 192 205 208 218 226 175 203 195 169 93 174 183 185 182 166 140 148 157 154 251 203 214 223 212 216 251 149 125 155 203 199 181 195 200 190 187 203 213 199 146 194 220 217 206 198 193 205 185 171 222 216 203 222 226 227 228 225 221 216 213
197 179 185 186 203 218 247 230 200 195 194 195 197 204 210 217 219 203 206 211 209 201 205 216 169 188 195 189 198 207 201 209 208 188 203 184 132 42 152 176 184 174 161 153 160 156 124 224 211 226 239 237 19 328 196 161 186 208 204 194 198 196 189 194 213 208 144 155 236 213 185 218 207 178 197 193 178 215 218 202 223 228 229 226 222 221 218 216
209 194 191 192 195 216 227 225 205 201 197 192 195 209 209 213 218 206 203 213 209 200 203 216 203 209 207 194 200 206 188 196 210 205 194 162 149 123 137 167 194 172 156 154 172 161 151 226 213 216 237 246 38 301 250 201 201 210 205 203 201 191 189 200 214 203 155 200 241 163 169 216 203 172 193 191 181 202 211 217 223 225 226 222 214 213 215 215
198 186 195 200 206 231 214 205 192 203 201 186 195 218 210 212 219 216 196 191 209 202 199 213 217 212 208 203 201 199 191 195 208 208 188 168 174 165 154 178 197 184 163 150 184 179 176 221 207 189 231 242 218 197 228 206 213 221 210 210 205 198 196 201 212 208 196 224 237 152 186 229 192 156 187 197 198 205 209 216 218 213 214 211 207 210 214 216
197 192 181 189 205 249 197 175 171 205 207 189 196 212 209 214 219 216 197 184 207 206 201 217 224 210 204 209 209 212 209 205 214 211 180 170 182 185 191 186 157 170 179 168 181 193 199 208 171 155 226 236 208 183 173 196 212 234 228 223 204 192 195 204 216 212 210 232 236 162 220 246 170 146 171 185 192 197 200 207 207 205 205 202 205 213 219 222
207 198 180 173 195 208 179 157 172 205 212 199 203 206 206 217 218 211 206 209 218 215 202 216 226 218 206 212 218 228 224 206 215 204 178 183 190 187 196 181 148 155 179 182 172 180 200 205 116 154 219 227 193 186 190 153 31 277 254 232 179 164 186 203 215 206 202 222 227 220 244 246 159 151 160 166 179 186 194 199 201 206 208 208 215 221 226 229
204 193 177 170 186 205 192 173 185 205 214 204 208 207 209 223 219 204 206 230 224 225 219 219 221 211 206 217 218 213 172 134 112 109 133 147 143 143 156 165 162 165 171 174 171 169 182 184 149 180 211 222 174 185 178 128 91 253 252 220 181 185 197 196 207 212 206 209 212 225 240 228 141 152 160 164 183 194 199 201 205 212 213 215 222 226 232 238